This is the latest recevied weather packets stored in our database for station/object W3EJE-13. If no packets are shown the sender has not sent any weather packets the latest 10 day(s).
| Time | Temp. | Humidity | Pressure | Rain* | Wind** | Luminosity | Snow |
|---|---|---|---|---|---|---|---|
| 1777892123 | 3.89° C | 92% | 1014.7 hPa | 0 mm | - | 19 W/m² | - |
| 1777891821 | 3.89° C | 92% | 1014.6 hPa | 0 mm | - | 20 W/m² | - |
| 1777891518 | 3.33° C | 92% | 1014.8 hPa | 0 mm | - | 14 W/m² | - |
| 1777891214 | 3.33° C | 92% | 1014.8 hPa | 0 mm | - | 11 W/m² | - |
| 1777890913 | 3.89° C | 92% | 1014.8 hPa | 0 mm | - | 11 W/m² | - |
| 1777890609 | 3.89° C | 92% | 1014.8 hPa | 0 mm | - | 9 W/m² | - |
| 1777890304 | 3.89° C | 92% | 1014.5 hPa | 0 mm | - | 6 W/m² | - |
| 1777890001 | 3.89° C | 92% | 1014.9 hPa | 0 mm | - | 3 W/m² | - |
| 1777889699 | 3.33° C | 93% | 1014.9 hPa | 0 mm | - | 1 W/m² | - |
| 1777889395 | 3.89° C | 93% | 1014.9 hPa | 0 mm | - | 0 W/m² | - |
| 1777889094 | 3.33° C | 93% | 1014.6 hPa | 0 mm | - | 0 W/m² | - |
| 1777888790 | 3.33° C | 93% | 1014.7 hPa | 0 mm | - | 0 W/m² | - |
| 1777888487 | 3.89° C | 93% | 1014.8 hPa | 0 mm | - | 0 W/m² | - |
| 1777888183 | 3.89° C | 94% | 1014.9 hPa | 0 mm | - | 0 W/m² | - |
| 1777887881 | 3.89° C | 93% | 1015 hPa | 0 mm | - | 0 W/m² | - |
| 1777887578 | 3.89° C | 94% | 1014.9 hPa | 0 mm | - | 0 W/m² | - |
| 1777887272 | 3.89° C | 94% | 1015 hPa | 0 mm | - | 0 W/m² | - |
| 1777886969 | 3.89° C | 95% | 1015 hPa | 0 mm | - | 0 W/m² | - |
| 1777886665 | 3.89° C | 95% | 1015 hPa | 0 mm | - | 0 W/m² | - |
| 1777886362 | 3.33° C | 95% | 1015 hPa | 0 mm | - | 0 W/m² | - |
| 1777886060 | 3.33° C | 95% | 1015.2 hPa | 0 mm | - | 0 W/m² | - |
| 1777885758 | 3.33° C | 95% | 1015.3 hPa | 0 mm | - | 0 W/m² | - |
| 1777885456 | 3.33° C | 95% | 1015.2 hPa | 0 mm | - | 0 W/m² | - |
| 1777885155 | 3.33° C | 95% | 1015.3 hPa | 0 mm | - | 0 W/m² | - |
| 1777884851 | 3.33° C | 95% | 1015.2 hPa | 0 mm | - | 0 W/m² | - |
* Rain latest hour (hover to see other rain measurements)
** Current wind speed in m/s (hover to see current wind gust speed)